EW5742 Weather Reports


Display with metric or nautical units.
time (UTC)temp
F
wind
direction
speed
MPH
gust
MPH
rain 1hr
in
rain 24hr
in
rain mn
in
humidity
%
barometer
mb
20260905114536 78 118 0.0 1.0 0.00 0.00 0.00 91 1011.3
20260905113031 77 73 0.0 4.0 0.00 0.00 0.00 93 1011.2
20260905111553 76 149 0.0 2.0 0.00 0.00 0.00 94 1011.2
20260905110052 75 110 0.0 1.0 0.00 0.00 0.00 94 1011.1
20260905104552 75 81 0.0 1.0 0.00 0.00 0.00 94 1011.0
20260905103050 74 49 0.0 0.0 0.00 0.00 0.00 94 1010.9
20260905101554 74 49 0.0 1.0 0.00 0.00 0.00 94 1010.8
20260905100055 73 49 0.0 1.0 0.00 0.00 0.00 93 1010.7
20260905094545 72 49 0.0 0.0 0.00 0.00 0.00 93 1010.7
20260905093050 72 49 0.0 0.0 0.00 0.00 0.00 93 1010.7
20260905091542 72 49 0.0 0.0 0.00 0.00 0.00 92 1010.8
20260905090042 72 49 0.0 0.0 0.00 0.00 0.00 92 1011.0
20260905084509 72 49 0.0 0.0 0.00 0.00 0.00 92 1010.9
20260905083010 73 49 0.0 0.0 0.00 0.00 0.00 91 1011.0
20260905081613 73 49 0.0 0.0 0.00 0.00 0.00 91 1011.1
20260905080038 73 49 0.0 0.0 0.00 0.00 0.00 91 1011.0
20260905074528 73 49 0.0 0.0 0.00 0.00 0.00 90 1011.2
20260905073028 74 49 0.0 0.0 0.00 0.00 0.00 89 1011.3
20260905071531 74 49 0.0 0.0 0.00 0.00 0.00 89 1011.3
20260905070024 75 49 0.0 0.0 0.00 0.00 0.00 88 1011.2
20260905064522 75 46 0.0 0.0 0.00 0.00 0.00 87 1011.4
20260905063048 76 41 0.0 3.0 0.00 0.00 0.00 86 1011.5
20260905061558 76 322 1.0 2.0 0.00 0.00 0.00 86 1011.4
20260905060021 76 139 0.0 2.0 0.00 0.00 0.00 86 1011.1
20260905054512 76 108 0.0 1.0 0.00 0.00 0.00 85 1011.9
20260905053056 75 146 0.0 2.0 0.00 0.00 0.00 85 1012.3
20260905051601 75 296 0.0 1.0 0.00 0.00 0.00 85 1012.6
20260905050055 75 248 0.0 2.0 0.00 0.00 0.00 85 1011.6
20260905044553 75 181 0.0 1.0 0.00 0.00 0.00 84 1011.7
20260905043024 76 311 0.0 0.0 0.00 0.00 0.00 84 1012.1
20260905041518 77 311 0.0 4.0 0.00 0.00 0.00 83 1012.8
20260905040054 77 223 1.0 4.0 0.00 0.00 0.00 81 1012.8
20260905034544 77 187 1.0 4.0 0.00 0.00 0.00 81 1013.5
20260905033013 78 339 0.0 4.0 0.00 0.00 0.00 81 1014.7
20260905031526 79 34 2.0 11.0 0.00 0.00 0.00 80 1015.2
20260905030042 80 353 5.0 13.0 0.00 0.00 0.00 86 1015.6
20260905024544 80 321 1.0 3.0 0.00 0.00 0.00 91 1015.2
20260905023016 80 103 0.0 0.0 0.00 0.00 0.00 90 1014.8
20260905021508 80 103 0.0 1.0 0.00 0.00 0.00 90 1014.8
20260905020047 80 321 0.0 0.0 0.00 0.00 0.00 89 1014.8
20260905014538 80 321 0.0 1.0 0.00 0.00 0.00 88 1014.8
20260905013027 81 116 0.0 2.0 0.00 0.00 0.00 88 1014.5
20260905011508 80 84 0.0 2.0 0.00 0.00 0.00 88 1014.1
20260905010049 81 152 0.0 3.0 0.00 0.00 0.00 88 1013.7
20260905004536 81 136 0.0 4.0 0.00 0.00 0.00 88 1013.5
20260905003010 81 114 0.0 7.0 0.00 0.00 0.00 88 1013.7
20260905001503 81 139 0.0 5.0 0.00 0.00 0.00 87 1013.3
20260905000032 81 82 0.0 4.0 0.00 0.00 0.00 87 1013.0
20260904234531 82 107 0.0 1.0 0.00 0.00 0.00 86 1013.0
20260904233003 83 211 0.0 2.0 0.00 0.00 0.00 84 1013.1
20260904231609 83 60 0.0 6.0 0.00 0.00 0.00 83 1013.1
20260904230041 84 153 0.0 7.0 0.00 0.00 0.00 81 1013.0
20260904224540 84 101 0.0 3.0 0.00 0.00 0.00 80 1012.7
20260904223039 85 8 1.0 6.0 0.00 0.00 0.00 78 1012.8
20260904221539 85 141 2.0 7.0 0.00 0.00 0.00 78 1012.9
20260904220036 86 241 2.0 8.0 0.00 0.00 0.00 77 1012.8
20260904214534 87 113 3.0 8.0 0.00 0.00 0.00 76 1012.9
20260904211521 89 134 0.0 9.0 0.00 0.00 0.00 75 1012.8
20260904210021 89 146 1.0 8.0 0.00 0.00 0.00 75 1012.7
20260904204524 89 248 1.0 10.0 0.00 0.00 0.00 75 1012.7
20260904203016 90 131 1.0 9.0 0.00 0.00 0.00 74 1013.1
20260904201505 89 164 5.0 13.0 0.00 0.00 0.00 74 1013.3
20260904200003 90 148 1.0 7.0 0.00 0.00 0.00 74 1013.6
20260904194628 90 148 3.0 11.0 0.00 0.00 0.00 74 1014.0
20260904193100 90 174 4.0 11.0 0.00 0.00 0.00 75 1014.3
20260904193005 90 162 4.0 11.0 0.00 0.00 0.00 75 1014.3
20260904193003 90 263 5.0 11.0 0.00 0.00 0.00 75 1014.3
20260904191531 90 236 3.0 13.0 0.00 0.00 0.00 76 1014.4
20260904190024 90 97 2.0 9.0 0.00 0.00 0.00 76 1014.5
20260904184553 90 230 4.0 10.0 0.00 0.00 0.00 74 1014.6
20260904183110 91 140 4.0 9.0 0.00 0.00 0.00 74 1014.9
20260904181559 91 109 3.0 13.0 0.00 0.00 0.00 73 1015.1
20260904180157 90 153 3.0 11.0 0.00 0.00 0.00 74 1015.2
20260904174541 90 198 2.0 13.0 0.00 0.00 0.00 74 1015.3
20260904173040 91 57 2.0 6.0 0.00 0.00 0.00 72 1015.3
20260904171513 91 131 1.0 7.0 0.00 0.00 0.00 73 1015.5
20260904170011 90 158 3.0 8.0 0.00 0.00 0.00 73 1015.5
20260904164505 90 148 5.0 9.0 0.00 0.00 0.00 74 1015.6
20260904163003 90 202 2.0 7.0 0.00 0.00 0.00 74 1015.7
20260904161502 90 136 1.0 9.0 0.00 0.00 0.00 74 1016.0
20260904160105 90 139 1.0 7.0 0.00 0.00 0.00 75 1016.1
20260904154542 90 136 1.0 6.0 0.00 0.00 0.00 73 1016.2
20260904153027 90 353 2.0 6.0 0.00 0.00 0.00 74 1016.2
20260904151606 89 297 0.0 2.0 0.00 0.00 0.00 74 1016.3
20260904150054 89 212 0.0 3.0 0.00 0.00 0.00 75 1016.2
20260904144546 89 140 2.0 5.0 0.00 0.00 0.00 74 1016.3
20260904143049 88 360 0.0 3.0 0.00 0.00 0.00 77 1016.2
20260904141543 86 127 0.0 3.0 0.00 0.00 0.00 79 1016.2
20260904140047 86 273 1.0 4.0 0.00 0.00 0.00 79 1016.1
20260904134534 87 105 1.0 7.0 0.00 0.00 0.00 80 1016.1
20260904133034 86 267 0.0 4.0 0.00 0.00 0.00 83 1016.0
20260904131531 85 98 0.0 3.0 0.00 0.00 0.00 86 1016.1
20260904130023 84 277 0.0 2.0 0.00 0.00 0.00 87 1016.0
20260904124601 83 23 0.0 2.0 0.00 0.00 0.00 88 1015.9
20260904123048 81 275 0.0 1.0 0.00 0.00 0.00 92 1015.9
20260904121515 80 335 0.0 1.0 0.00 0.00 0.00 94 1015.8